TimeCST,TemperatureF,Dew PointF,Humidity,Sea Level PressureIn,VisibilityMPH,Wind Direction,Wind SpeedMPH,Gust SpeedMPH,PrecipitationIn,Events,Conditions,WindDirDegrees,DateUTC
12:51 AM,33.1,19.0,56,30.33,10.0,SW,9.2,-,N/A,,Clear,220,2013-01-05 06:51:00
1:51 AM,32.0,19.0,59,30.34,10.0,SW,9.2,-,N/A,,Clear,220,2013-01-05 07:51:00
2:51 AM,32.0,19.4,60,30.30,10.0,SW,6.9,-,N/A,,Partly Cloudy,230,2013-01-05 08:51:00
3:51 AM,30.2,19.4,64,30.29,10.0,Calm,Calm,-,N/A,,Scattered Clouds,0,2013-01-05 09:51:00
4:51 AM,33.1,19.0,56,30.31,10.0,Calm,Calm,-,N/A,,Partly Cloudy,0,2013-01-05 10:51:00
5:51 AM,32.0,19.4,60,30.30,10.0,SW,6.9,-,N/A,,Scattered Clouds,220,2013-01-05 11:51:00
6:51 AM,34.0,21.0,59,30.32,10.0,SW,8.1,-,N/A,,Mostly Cloudy,230,2013-01-05 12:51:00
7:51 AM,34.0,21.9,61,30.33,10.0,SW,11.5,-,N/A,,Mostly Cloudy,230,2013-01-05 13:51:00
8:51 AM,35.6,21.2,56,30.30,10.0,SW,9.2,-,N/A,Snow,Light Snow,230,2013-01-05 14:51:00
8:59 AM,35.6,21.2,56,30.30,9.0,SW,6.9,-,0.00,,Overcast,230,2013-01-05 14:59:00
9:51 AM,37.9,23.0,55,30.34,10.0,WSW,10.4,-,0.00,,Mostly Cloudy,240,2013-01-05 15:51:00
10:51 AM,39.9,24.1,53,30.32,10.0,WSW,9.2,-,N/A,,Mostly Cloudy,240,2013-01-05 16:51:00
11:51 AM,44.1,27.0,51,30.27,10.0,West,9.2,-,N/A,,Mostly Cloudy,260,2013-01-05 17:51:00
12:51 PM,45.0,26.1,48,30.22,10.0,SW,8.1,-,N/A,,Mostly Cloudy,220,2013-01-05 18:51:00
1:51 PM,45.0,25.0,46,30.18,10.0,SSW,10.4,-,N/A,,Overcast,200,2013-01-05 19:51:00
2:51 PM,46.0,24.1,42,30.18,10.0,SW,12.7,-,N/A,,Overcast,220,2013-01-05 20:51:00
3:51 PM,44.1,26.1,49,30.19,10.0,SW,6.9,-,0.00,Rain,Light Rain,220,2013-01-05 21:51:00
4:51 PM,44.1,26.1,49,30.17,10.0,South,5.8,-,0.00,,Overcast,180,2013-01-05 22:51:00
5:51 PM,42.1,26.1,53,30.18,10.0,South,5.8,-,N/A,,Overcast,190,2013-01-05 23:51:00
6:51 PM,42.1,26.1,53,30.19,10.0,SSW,5.8,-,N/A,,Overcast,200,2013-01-06 00:51:00
7:51 PM,43.0,26.1,51,30.18,10.0,SSW,9.2,-,N/A,,Overcast,210,2013-01-06 01:51:00
8:51 PM,43.0,27.0,53,30.16,10.0,SW,8.1,-,N/A,,Overcast,230,2013-01-06 02:51:00
9:51 PM,43.0,27.0,53,30.16,10.0,SW,10.4,-,N/A,,Overcast,230,2013-01-06 03:51:00
10:51 PM,42.1,28.9,60,30.14,10.0,SW,11.5,-,N/A,,Mostly Cloudy,230,2013-01-06 04:51:00
11:51 PM,42.1,28.9,60,30.12,10.0,SW,15.0,-,N/A,,Mostly Cloudy,220,2013-01-06 05:51:00